datetime,min air temp
1990-10-01,36.14
1990-10-02,27.68
1990-10-03,28.94
1990-10-04,27.32
1990-10-05,24.44
1990-10-06,15.98
1990-10-07,19.22
1990-10-08,20.12
1990-10-09,23.18
1990-10-10,24.26
1990-10-11,15.62
1990-10-12,28.58
1990-10-13,25.34
1990-10-14,19.4
1990-10-15,40.82
1990-10-16,20.3
1990-10-17,17.42
1990-10-18,28.22
1990-10-19,23.72
1990-10-20,15.08
1990-10-21,26.06
1990-10-22,27.86
1990-10-23,23.72
1990-10-24,28.04
1990-10-25,28.94
1990-10-26,31.64
1990-10-27,26.96
1990-10-28,22.28
1990-10-29,17.96
1990-10-30,36.86
1990-10-31,26.6
1990-11-01,15.08
1990-11-02,9.32
1990-11-03,25.16
1990-11-04,30.74
1990-11-05,27.14
1990-11-06,21.02
1990-11-07,21.38
1990-11-08,30.2
1990-11-09,26.6
1990-11-10,23.18
1990-11-11,22.64
1990-11-12,22.64
1990-11-13,27.86
1990-11-14,16.52
1990-11-15,13.1
1990-11-16,13.82
1990-11-17,22.1
1990-11-18,30.92
1990-11-19,20.66
1990-11-20,22.46
1990-11-21,29.12
1990-11-22,22.1
1990-11-23,20.48
1990-11-24,24.08
1990-11-25,19.4
1990-11-26,14.36
1990-11-27,16.16
1990-11-28,9.32
1990-11-29,16.7
1990-11-30,11.3
1990-12-01,9.5
1990-12-02,23.18
1990-12-03,12.92
1990-12-04,22.1
1990-12-05,14.18
1990-12-06,9.32
1990-12-07,10.58
1990-12-08,24.44
1990-12-09,25.16
1990-12-10,27.5
1990-12-11,14.18
1990-12-12,12.74
1990-12-13,6.08
1990-12-14,3.38
1990-12-15,16.88
1990-12-16,22.28
1990-12-17,17.42
1990-12-18,17.6
1990-12-19,-7.6
1990-12-20,-17.68
1990-12-21,-19.66
1990-12-22,-23.26
1990-12-23,-9.76
1990-12-24,-8.32
1990-12-25,20.66
1990-12-26,12.92
1990-12-27,10.58
1990-12-28,2.66
1990-12-29,-9.04
1990-12-30,-9.04
1990-12-31,-0.22
1991-01-01,5.18
1991-01-02,3.02
1991-01-03,6.08
1991-01-04,-2.38
1991-01-05,5.72
1991-01-06,15.08
1991-01-07,22.46
1991-01-08,12.74
1991-01-09,15.62
1991-01-10,30.56
1991-01-11,31.82
1991-01-12,33.98
1991-01-13,32.18
1991-01-14,30.74
1991-01-15,20.84
1991-01-16,17.96
1991-01-17,21.92
1991-01-18,21.74
1991-01-19,18.68
1991-01-20,13.28
1991-01-21,8.6
1991-01-22,12.74
1991-01-23,14.18
1991-01-24,12.02
1991-01-25,8.78
1991-01-26,10.04
1991-01-27,9.14
1991-01-28,12.38
1991-01-29,1.76
1991-01-30,1.76
1991-01-31,26.42
1991-02-01,25.7
1991-02-02,31.64
1991-02-03,31.82
1991-02-04,31.82
1991-02-05,24.62
1991-02-06,22.1
1991-02-07,22.28
1991-02-08,24.98
1991-02-09,22.28
1991-02-10,21.74
1991-02-11,25.52
1991-02-12,25.34
1991-02-13,30.38
1991-02-14,29.3
1991-02-15,30.02
1991-02-16,26.42
1991-02-17,26.42
1991-02-18,27.5
1991-02-19,27.86
1991-02-20,26.6
1991-02-21,23.18
1991-02-22,22.82
1991-02-23,21.74
1991-02-24,20.84
1991-02-25,21.38
1991-02-26,24.26
1991-02-27,20.84
1991-02-28,25.7
1991-03-01,31.46
1991-03-02,28.76
1991-03-03,31.64
1991-03-04,23.36
1991-03-05,20.12
1991-03-06,14.36
1991-03-07,5.72
1991-03-08,8.6
1991-03-09,21.74
1991-03-10,19.4
1991-03-11,13.82
1991-03-12,22.46
1991-03-13,14.54
1991-03-14,17.24
1991-03-15,13.82
1991-03-16,10.94
1991-03-17,19.58
1991-03-18,23.18
1991-03-19,17.06
1991-03-20,17.78
1991-03-21,13.46
1991-03-22,21.74
1991-03-23,27.5
1991-03-24,19.4
1991-03-25,23.9
1991-03-26,20.48
1991-03-27,15.98
1991-03-28,16.52
1991-03-29,24.44
1991-03-30,23.36
1991-03-31,25.7
1991-04-01,25.16
1991-04-02,26.78
1991-04-03,25.34
1991-04-04,32.36
1991-04-05,26.06
1991-04-06,26.06
1991-04-07,15.62
1991-04-08,15.44
1991-04-09,20.66
1991-04-10,16.16
1991-04-11,15.98
1991-04-12,24.62
1991-04-13,22.82
1991-04-14,23.72
1991-04-15,22.82
1991-04-16,26.06
1991-04-17,26.78
1991-04-18,27.68
1991-04-19,26.6
1991-04-20,34.16
1991-04-21,33.62
1991-04-22,29.66
1991-04-23,27.86
1991-04-24,23.9
1991-04-25,21.38
1991-04-26,23.18
1991-04-27,22.46
1991-04-28,20.12
1991-04-29,21.74
1991-04-30,25.16
1991-05-01,37.04
1991-05-02,28.76
1991-05-03,21.56
1991-05-04,21.92
1991-05-05,34.7
1991-05-06,28.4
1991-05-07,28.76
1991-05-08,24.08
1991-05-09,19.58
1991-05-10,23.72
1991-05-11,33.08
1991-05-12,37.94
1991-05-13,30.2
1991-05-14,28.58
1991-05-15,24.08
1991-05-16,34.34
1991-05-17,31.1
1991-05-18,28.94
1991-05-19,23.18
1991-05-20,38.12
1991-05-21,31.46
1991-05-22,27.14
1991-05-23,27.32
1991-05-24,32.36
1991-05-25,24.8
1991-05-26,25.7
1991-05-27,25.34
1991-05-28,23.72
1991-05-29,25.34
1991-05-30,25.34
1991-05-31,23.18
1991-06-01,35.06
1991-06-02,35.78
1991-06-03,30.92
1991-06-04,27.68
1991-06-05,24.62
1991-06-06,32.9
1991-06-07,29.3
1991-06-08,32.0
1991-06-09,39.02
1991-06-10,46.04
1991-06-11,39.74
1991-06-12,28.04
1991-06-13,25.16
1991-06-14,22.82
1991-06-15,27.32
1991-06-16,26.06
1991-06-17,26.24
1991-06-18,43.16
1991-06-19,36.5
1991-06-20,31.46
1991-06-21,24.8
1991-06-22,27.86
1991-06-23,30.92
1991-06-24,38.12
1991-06-25,32.0
1991-06-26,28.04
1991-06-27,42.44
1991-06-28,43.7
1991-06-29,38.3
1991-06-30,30.92
1991-07-01,38.48
1991-07-02,47.84
1991-07-03,50.18
1991-07-04,50.9
1991-07-05,40.64
1991-07-06,39.38
1991-07-07,46.4
1991-07-08,41.18
1991-07-09,34.34
1991-07-10,32.54
1991-07-11,37.4
1991-07-12,42.98
1991-07-13,46.58
1991-07-14,39.38
1991-07-15,37.94
1991-07-16,48.38
1991-07-17,45.68
1991-07-18,35.6
1991-07-19,40.1
1991-07-20,40.28
1991-07-21,36.86
1991-07-22,48.2
1991-07-23,51.08
1991-07-24,47.48
1991-07-25,41.36
1991-07-26,32.54
1991-07-27,38.3
1991-07-28,44.78
1991-07-29,41.72
1991-07-30,38.66
1991-07-31,43.88
1991-08-01,33.8
1991-08-02,41.36
1991-08-03,47.3
1991-08-04,52.52
1991-08-05,49.64
1991-08-06,42.08
1991-08-07,42.26
1991-08-08,39.38
1991-08-09,41.72
1991-08-10,27.5
1991-08-11,32.36
1991-08-12,36.68
1991-08-13,36.68
1991-08-14,36.14
1991-08-15,48.56
1991-08-16,42.44
1991-08-17,44.78
1991-08-18,45.32
1991-08-19,48.38
1991-08-20,52.16
1991-08-21,41.36
1991-08-22,43.52
1991-08-23,40.64
1991-08-24,35.06
1991-08-25,38.48
1991-08-26,37.04
1991-08-27,32.72
1991-08-28,46.22
1991-08-29,42.08
1991-08-30,37.58
1991-08-31,36.86
1991-09-01,42.08
1991-09-02,33.44
1991-09-03,40.28
1991-09-04,43.7
1991-09-05,45.5
1991-09-06,42.08
1991-09-07,36.14
1991-09-08,31.82
1991-09-09,35.24
1991-09-10,33.08
1991-09-11,30.38
1991-09-12,33.26
1991-09-13,38.3
1991-09-14,27.86
1991-09-15,33.26
1991-09-16,34.7
1991-09-17,44.42
1991-09-18,40.82
1991-09-19,41.36
1991-09-20,36.5
1991-09-21,19.4
1991-09-22,27.5
1991-09-23,37.58
1991-09-24,35.42
1991-09-25,38.48
1991-09-26,43.52
1991-09-27,37.58
1991-09-28,33.44
1991-09-29,36.14
1991-09-30,33.44
1991-10-01,33.8
1991-10-02,32.9
1991-10-03,32.54
1991-10-04,30.92
1991-10-05,30.2
1991-10-06,32.36
1991-10-07,27.86
1991-10-08,33.8
1991-10-09,34.7
1991-10-10,35.78
1991-10-11,32.0
1991-10-12,33.98
1991-10-13,32.36
1991-10-14,31.82
1991-10-15,32.36
1991-10-16,33.08
1991-10-17,27.86
1991-10-18,25.52
1991-10-19,27.32
1991-10-20,30.02
1991-10-21,29.12
1991-10-22,16.7
1991-10-23,26.42
1991-10-24,27.32
1991-10-25,30.02
1991-10-26,28.22
1991-10-27,19.58
1991-10-28,14.18
1991-10-29,18.32
1991-10-30,7.88
1991-10-31,16.34
1991-11-01,25.52
1991-11-02,24.98
1991-11-03,26.96
1991-11-04,34.52
1991-11-05,39.74
1991-11-06,39.38
1991-11-07,38.3
1991-11-08,35.96
1991-11-09,33.08
1991-11-10,31.1
1991-11-11,32.0
1991-11-12,35.6
1991-11-13,28.76
1991-11-14,23.72
1991-11-15,18.86
1991-11-16,18.5
1991-11-17,30.56
1991-11-18,27.5
1991-11-19,27.68
1991-11-20,26.06
1991-11-21,9.86
1991-11-22,4.46
1991-11-23,15.8
1991-11-24,31.64
1991-11-25,31.82
1991-11-26,30.56
1991-11-27,13.1
1991-11-28,10.58
1991-11-29,6.8
1991-11-30,4.28
1991-12-01,18.14
1991-12-02,24.44
1991-12-03,21.92
1991-12-04,17.78
1991-12-05,26.42
1991-12-06,29.66
1991-12-07,16.7
1991-12-08,12.92
1991-12-09,14.18
1991-12-10,11.66
1991-12-11,10.76
1991-12-12,23.0
1991-12-13,12.38
1991-12-14,10.58
1991-12-15,18.5
1991-12-16,17.06
1991-12-17,16.7
1991-12-18,24.08
1991-12-19,7.52
1991-12-20,3.2
1991-12-21,11.12
1991-12-22,15.08
1991-12-23,16.52
1991-12-24,12.02
1991-12-25,17.06
1991-12-26,23.72
1991-12-27,30.2
1991-12-28,26.24
1991-12-29,26.42
1991-12-30,25.52
1991-12-31,13.82
1992-01-01,16.88
1992-01-02,17.96
1992-01-03,18.14
1992-01-04,21.92
1992-01-05,25.52
1992-01-06,21.74
1992-01-07,8.24
1992-01-08,4.28
1992-01-09,11.3
1992-01-10,16.88
1992-01-11,5.18
1992-01-12,-3.2800000000000002
1992-01-13,12.56
1992-01-14,15.26
1992-01-15,19.58
1992-01-16,20.84
1992-01-17,18.5
1992-01-18,7.7
1992-01-19,-0.04
1992-01-20,2.48
1992-01-21,16.16
1992-01-22,12.74
1992-01-23,15.8
1992-01-24,26.42
1992-01-25,20.12
1992-01-26,19.58
1992-01-27,27.86
1992-01-28,28.04
1992-01-29,26.96
1992-01-30,29.12
1992-01-31,27.86
1992-02-01,18.68
1992-02-02,19.22
1992-02-03,15.98
1992-02-04,19.58
1992-02-05,15.44
1992-02-06,23.36
1992-02-07,19.94
1992-02-08,16.34
1992-02-09,31.82
1992-02-10,33.44
1992-02-11,30.74
1992-02-12,30.92
1992-02-13,28.22
1992-02-14,28.94
1992-02-15,21.74
1992-02-16,24.98
1992-02-17,24.08
1992-02-18,28.22
1992-02-19,32.0
1992-02-20,32.0
1992-02-21,31.82
1992-02-22,23.18
1992-02-23,18.68
1992-02-24,26.6
1992-02-25,31.1
1992-02-26,27.86
1992-02-27,23.18
1992-02-28,25.34
1992-02-29,25.34
1992-03-01,28.76
1992-03-02,29.12
1992-03-03,24.98
1992-03-04,22.28
1992-03-05,28.04
1992-03-06,26.96
1992-03-07,29.12
1992-03-08,27.32
1992-03-09,19.04
1992-03-10,20.12
1992-03-11,25.34
1992-03-12,23.72
1992-03-13,23.36
1992-03-14,25.34
1992-03-15,24.8
1992-03-16,28.4
1992-03-17,22.28
1992-03-18,15.8
1992-03-19,19.22
1992-03-20,21.38
1992-03-21,29.12
1992-03-22,23.72
1992-03-23,24.26
1992-03-24,23.18
1992-03-25,30.56
1992-03-26,24.8
1992-03-27,22.46
1992-03-28,24.8
1992-03-29,25.34
1992-03-30,30.02
1992-03-31,32.9
1992-04-01,29.3
1992-04-02,26.42
1992-04-03,30.74
1992-04-04,22.28
1992-04-05,26.06
1992-04-06,24.44
1992-04-07,15.62
1992-04-08,34.7
1992-04-09,37.22
1992-04-10,34.34
1992-04-11,38.48
1992-04-12,34.88
1992-04-13,33.8
1992-04-14,28.94
1992-04-15,29.3
1992-04-16,40.1
1992-04-17,32.18
1992-04-18,26.6
1992-04-19,23.0
1992-04-20,33.62
1992-04-21,26.78
1992-04-22,22.1
1992-04-23,15.8
1992-04-24,26.78
1992-04-25,31.46
1992-04-26,33.44
1992-04-27,32.9
1992-04-28,39.56
1992-04-29,37.4
1992-04-30,27.86
1992-05-01,19.94
1992-05-02,28.04
1992-05-03,32.9
1992-05-04,36.68
1992-05-05,42.8
1992-05-06,45.68
1992-05-07,46.58
1992-05-08,38.12
1992-05-09,26.06
1992-05-10,31.1
1992-05-11,25.16
1992-05-12,24.62
1992-05-13,36.5
1992-05-14,34.88
1992-05-15,31.1
1992-05-16,30.02
1992-05-17,41.18
1992-05-18,33.08
1992-05-19,39.56
1992-05-20,29.84
1992-05-21,20.48
1992-05-22,30.92
1992-05-23,37.94
1992-05-24,40.28
1992-05-25,46.58
1992-05-26,37.58
1992-05-27,28.4
1992-05-28,39.2
1992-05-29,37.04
1992-05-30,46.04
1992-05-31,41.36
1992-06-01,45.14
1992-06-02,39.56
1992-06-03,34.7
1992-06-04,33.26
1992-06-05,28.58
1992-06-06,40.46
1992-06-07,37.22
1992-06-08,26.96
1992-06-09,32.0
1992-06-10,36.14
1992-06-11,34.7
1992-06-12,35.06
1992-06-13,29.3
1992-06-14,30.2
1992-06-15,26.96
1992-06-16,35.42
1992-06-17,32.18
1992-06-18,44.06
1992-06-19,38.84
1992-06-20,46.58
1992-06-21,46.04
1992-06-22,52.88
1992-06-23,49.64
1992-06-24,50.9
1992-06-25,52.52
1992-06-26,44.6
1992-06-27,46.94
1992-06-28,41.54
1992-06-29,39.38
1992-06-30,41.18
1992-07-01,37.76
1992-07-02,36.14
1992-07-03,39.02
1992-07-04,44.06
1992-07-05,41.18
1992-07-06,37.04
1992-07-07,30.2
1992-07-08,34.7
1992-07-09,33.26
1992-07-10,41.0
1992-07-11,46.04
1992-07-12,39.38
1992-07-13,39.56
1992-07-14,35.6
1992-07-15,36.14
1992-07-16,46.94
1992-07-17,51.26
1992-07-18,46.4
1992-07-19,44.78
1992-07-20,46.22
1992-07-21,36.32
1992-07-22,40.46
1992-07-23,30.02
1992-07-24,32.0
1992-07-25,44.06
1992-07-26,45.32
1992-07-27,43.7
1992-07-28,42.98
1992-07-29,39.56
1992-07-30,46.58
1992-07-31,48.2
1992-08-01,41.9
1992-08-02,37.4
1992-08-03,40.46
1992-08-04,38.48
1992-08-05,31.1
1992-08-06,35.78
1992-08-07,43.7
1992-08-08,34.7
1992-08-09,32.9
1992-08-10,48.02
1992-08-11,54.86
1992-08-12,56.66
1992-08-13,46.58
1992-08-14,51.62
1992-08-15,55.22
1992-08-16,49.82
1992-08-17,48.92
1992-08-18,46.94
1992-08-19,46.58
1992-08-20,36.5
1992-08-21,37.4
1992-08-22,30.56
1992-08-23,26.6
1992-08-24,26.06
1992-08-25,33.26
1992-08-26,31.1
1992-08-27,36.68
1992-08-28,38.3
1992-08-29,35.42
1992-08-30,38.48
1992-08-31,40.28
1992-09-01,36.32
1992-09-02,35.42
1992-09-03,34.88
1992-09-04,43.52
1992-09-05,29.12
1992-09-06,22.82
1992-09-07,27.32
1992-09-08,33.26
1992-09-09,32.9
1992-09-10,41.72
1992-09-11,40.82
1992-09-12,26.96
1992-09-13,20.66
1992-09-14,22.46
1992-09-15,39.38
1992-09-16,28.94
1992-09-17,28.76
1992-09-18,32.54
1992-09-19,34.7
1992-09-20,33.44
1992-09-21,37.58
1992-09-22,39.56
1992-09-23,43.88
1992-09-24,36.68
1992-09-25,35.42
1992-09-26,28.04
1992-09-27,29.12
1992-09-28,30.02
1992-09-29,33.26
1992-09-30,36.86
1992-10-01,38.3
1992-10-02,37.22
1992-10-03,27.32
1992-10-04,22.82
1992-10-05,26.24
1992-10-06,29.84
1992-10-07,21.56
1992-10-08,30.56
1992-10-09,25.34
1992-10-10,30.2
1992-10-11,32.54
1992-10-12,28.76
1992-10-13,30.74
1992-10-14,27.32
1992-10-15,17.06
1992-10-16,24.26
1992-10-17,26.06
1992-10-18,30.56
1992-10-19,27.5
1992-10-20,28.4
1992-10-21,28.22
1992-10-22,28.22
1992-10-23,28.4
1992-10-24,26.96
1992-10-25,32.18
1992-10-26,26.42
1992-10-27,28.58
1992-10-28,36.14
1992-10-29,31.64
1992-10-30,31.28
1992-10-31,32.36
1992-11-01,34.7
1992-11-02,25.52
1992-11-03,23.54
1992-11-04,26.96
1992-11-05,24.26
1992-11-06,28.22
1992-11-07,26.06
1992-11-08,26.06
1992-11-09,9.86
1992-11-10,4.46
1992-11-11,11.84
1992-11-12,24.98
1992-11-13,24.26
1992-11-14,24.8
1992-11-15,23.36
1992-11-16,24.08
1992-11-17,24.62
1992-11-18,21.56
1992-11-19,16.88
1992-11-20,9.86
1992-11-21,25.52
1992-11-22,20.3
1992-11-23,6.98
1992-11-24,0.32
1992-11-25,17.06
1992-11-26,12.92
1992-11-27,26.42
1992-11-28,13.64
1992-11-29,5.54
1992-11-30,25.7
1992-12-01,30.2
1992-12-02,17.78
1992-12-03,5.36
1992-12-04,0.32
1992-12-05,-8.68
1992-12-06,16.16
1992-12-07,13.64
1992-12-08,18.14
1992-12-09,21.56
1992-12-10,17.78
1992-12-11,21.38
1992-12-12,13.28
1992-12-13,7.52
1992-12-14,8.42
1992-12-15,14.72
1992-12-16,12.74
1992-12-17,18.32
1992-12-18,5.36
1992-12-19,1.04
1992-12-20,20.48
1992-12-21,20.84
1992-12-22,15.8
1992-12-23,12.92
1992-12-24,6.44
1992-12-25,-2.92
1992-12-26,15.26
1992-12-27,28.04
1992-12-28,24.62
1992-12-29,13.46
1992-12-30,13.46
1992-12-31,24.08
1993-01-01,3.38
1993-01-02,-8.5
1993-01-03,-4.54
1993-01-04,18.5
1993-01-05,10.58
1993-01-06,7.7
1993-01-07,9.32
1993-01-08,6.62
1993-01-09,1.22
1993-01-10,3.92
1993-01-11,9.5
1993-01-12,5.36
1993-01-13,7.52
1993-01-14,14.18
1993-01-15,9.5
1993-01-16,21.38
1993-01-17,14.72
1993-01-18,15.44
1993-01-19,17.96
1993-01-20,27.32
1993-01-21,21.2
1993-01-22,1.58
1993-01-23,-3.8200000000000003
1993-01-24,23.36
1993-01-25,13.82
1993-01-26,5.54
1993-01-27,8.42
1993-01-28,15.44
1993-01-29,12.2
1993-01-30,10.04
1993-01-31,7.88
1993-02-01,6.26
1993-02-02,17.24
1993-02-03,18.32
1993-02-04,13.64
1993-02-05,24.44
1993-02-06,24.44
1993-02-07,23.9
1993-02-08,26.24
1993-02-09,23.9
1993-02-10,19.4
1993-02-11,24.26
1993-02-12,22.82
1993-02-13,17.06
1993-02-14,11.12
1993-02-15,1.58
1993-02-16,-13.9
1993-02-17,2.84
1993-02-18,11.12
1993-02-19,23.18
1993-02-20,13.82
1993-02-21,16.16
1993-02-22,22.28
1993-02-23,11.3
1993-02-24,0.5
1993-02-25,-6.88
1993-02-26,1.58
1993-02-27,-1.48
1993-02-28,0.68
1993-03-01,11.48
1993-03-02,28.94
1993-03-03,28.94
1993-03-04,27.86
1993-03-05,23.36
1993-03-06,21.02
1993-03-07,22.64
1993-03-08,26.96
1993-03-09,31.28
1993-03-10,29.66
1993-03-11,24.62
1993-03-12,23.0
1993-03-13,28.04
1993-03-14,33.26
1993-03-15,32.9
1993-03-16,33.26
1993-03-17,34.7
1993-03-18,31.46
1993-03-19,27.14
1993-03-20,25.34
1993-03-21,20.84
1993-03-22,25.34
1993-03-23,30.92
1993-03-24,24.62
1993-03-25,23.72
1993-03-26,25.34
1993-03-27,19.22
1993-03-28,25.52
1993-03-29,25.16
1993-03-30,24.98
1993-03-31,28.58
1993-04-01,26.24
1993-04-02,26.24
1993-04-03,31.46
1993-04-04,28.76
1993-04-05,24.98
1993-04-06,23.9
1993-04-07,25.52
1993-04-08,28.4
1993-04-09,26.6
1993-04-10,25.16
1993-04-11,17.78
1993-04-12,12.92
1993-04-13,24.26
1993-04-14,19.04
1993-04-15,26.42
1993-04-16,23.9
1993-04-17,28.58
1993-04-18,25.52
1993-04-19,16.88
1993-04-20,26.6
1993-04-21,28.22
1993-04-22,23.36
1993-04-23,27.5
1993-04-24,31.82
1993-04-25,27.5
1993-04-26,25.52
1993-04-27,23.36
1993-04-28,26.06
1993-04-29,32.72
1993-04-30,25.7
1993-05-01,26.42
1993-05-02,33.26
1993-05-03,28.4
1993-05-04,22.82
1993-05-05,24.26
1993-05-06,29.66
1993-05-07,22.46
1993-05-08,27.5
1993-05-09,24.62
1993-05-10,33.08
1993-05-11,33.62
1993-05-12,34.16
1993-05-13,28.22
1993-05-14,31.28
1993-05-15,30.56
1993-05-16,37.22
1993-05-17,38.48
1993-05-18,42.26
1993-05-19,38.84
1993-05-20,41.72
1993-05-21,37.04
1993-05-22,29.12
1993-05-23,33.08
1993-05-24,40.64
1993-05-25,33.62
1993-05-26,31.46
1993-05-27,38.84
1993-05-28,36.32
1993-05-29,29.66
1993-05-30,43.7
1993-05-31,39.92
1993-06-01,34.16
1993-06-02,30.02
1993-06-03,26.24
1993-06-04,39.38
1993-06-05,35.78
1993-06-06,39.2
1993-06-07,33.98
1993-06-08,25.88
1993-06-09,34.16
1993-06-10,34.7
1993-06-11,25.88
1993-06-12,21.38
1993-06-13,31.28
1993-06-14,40.1
1993-06-15,34.16
1993-06-16,33.26
1993-06-17,39.92
1993-06-18,40.82
1993-06-19,42.98
1993-06-20,42.98
1993-06-21,33.98
1993-06-22,26.06
1993-06-23,21.74
1993-06-24,28.4
1993-06-25,41.9
1993-06-26,42.8
1993-06-27,38.12
1993-06-28,35.24
1993-06-29,30.02
1993-06-30,33.44
1993-07-01,47.66
1993-07-02,36.86
1993-07-03,32.54
1993-07-04,37.4
1993-07-05,29.12
1993-07-06,45.86
1993-07-07,28.04
1993-07-08,48.02
1993-07-09,33.26
1993-07-10,
1993-07-11,
1993-07-12,
1993-07-13,
1993-07-14,
1993-07-15,
1993-07-16,
1993-07-17,
1993-07-18,
1993-07-19,
1993-07-20,
1993-07-21,
1993-07-22,
1993-07-23,
1993-07-24,
1993-07-25,
1993-07-26,
1993-07-27,
1993-07-28,
1993-07-29,
1993-07-30,
1993-07-31,
1993-08-01,
1993-08-02,
1993-08-03,
1993-08-04,48.92
1993-08-05,
1993-08-06,39.38
1993-08-07,36.86
1993-08-08,32.54
1993-08-09,36.32
1993-08-10,
1993-08-11,37.58
1993-08-12,
1993-08-13,33.26
1993-08-14,36.32
1993-08-15,40.46
1993-08-16,33.26
1993-08-17,32.18
1993-08-18,41.54
1993-08-19,48.56
1993-08-20,44.24
1993-08-21,40.46
1993-08-22,33.98
1993-08-23,41.18
1993-08-24,32.0
1993-08-25,26.06
1993-08-26,28.58
1993-08-27,34.34
1993-08-28,34.88
1993-08-29,32.54
1993-08-30,36.68
1993-08-31,38.12
1993-09-01,37.94
1993-09-02,36.32
1993-09-03,40.82
1993-09-04,39.74
1993-09-05,42.98
1993-09-06,45.68
1993-09-07,43.7
1993-09-08,43.7
1993-09-09,40.82
1993-09-10,42.98
1993-09-11,42.44
1993-09-12,26.24
1993-09-13,24.62
1993-09-14,24.98
1993-09-15,32.0
1993-09-16,36.86
1993-09-17,31.82
1993-09-18,28.76
1993-09-19,25.88
1993-09-20,21.74
1993-09-21,20.12
1993-09-22,27.14
1993-09-23,
1993-09-24,23.54
1993-09-25,28.76
1993-09-26,34.52
1993-09-27,33.26
1993-09-28,42.8
1993-09-29,39.74
1993-09-30,
1993-10-01,
1993-10-02,
1993-10-03,33.98
1993-10-04,43.88
1993-10-05,37.94
1993-10-06,35.24
1993-10-07,30.02
1993-10-08,28.04
1993-10-09,28.76
1993-10-10,37.94
1993-10-11,
1993-10-12,
1993-10-13,37.58
1993-10-14,31.28
1993-10-15,35.96
1993-10-16,28.76
1993-10-17,23.54
1993-10-18,
1993-10-19,25.52
1993-10-20,25.52
1993-10-21,32.72
1993-10-22,26.78
1993-10-23,24.26
1993-10-24,
1993-10-25,26.06
1993-10-26,
1993-10-27,22.28
1993-10-28,31.1
1993-10-29,29.3
1993-10-30,
1993-10-31,
1993-11-01,18.5
1993-11-02,17.96
1993-11-03,23.54
1993-11-04,13.28
1993-11-05,17.6
1993-11-06,15.08
1993-11-07,12.56
1993-11-08,10.58
1993-11-09,21.74
1993-11-10,20.12
1993-11-11,16.34
1993-11-12,22.64
1993-11-13,16.16
1993-11-14,16.16
1993-11-15,13.1
1993-11-16,21.2
1993-11-17,20.3
1993-11-18,9.32
1993-11-19,9.68
1993-11-20,
1993-11-21,8.78
1993-11-22,
1993-11-23,
1993-11-24,-12.46
1993-11-25,
1993-11-26,-2.02
1993-11-27,
1993-11-28,
1993-11-29,29.84
1993-11-30,
1993-12-01,
1993-12-02,19.4
1993-12-03,
1993-12-04,19.4
1993-12-05,16.52
1993-12-06,21.02
1993-12-07,29.48
1993-12-08,27.68
1993-12-09,26.42
1993-12-10,35.6
1993-12-11,24.62
1993-12-12,17.78
1993-12-13,
1993-12-14,
1993-12-15,17.96
1993-12-16,8.24
1993-12-17,15.08
1993-12-18,9.32
1993-12-19,
1993-12-20,6.98
1993-12-21,7.16
1993-12-22,4.46
1993-12-23,14.54
1993-12-24,10.94
1993-12-25,
1993-12-26,19.76
1993-12-27,
1993-12-28,
1993-12-29,15.98
1993-12-30,
1993-12-31,25.52
1994-01-01,
1994-01-02,
1994-01-03,31.46
1994-01-04,27.32
1994-01-05,
1994-01-06,11.12
1994-01-07,10.4
1994-01-08,
1994-01-09,15.98
1994-01-10,15.08
1994-01-11,23.54
1994-01-12,23.36
1994-01-13,
1994-01-14,
1994-01-15,17.6
1994-01-16,13.64
1994-01-17,
1994-01-18,
1994-01-19,
1994-01-20,13.46
1994-01-21,27.32
1994-01-22,32.54
1994-01-23,32.54
1994-01-24,22.64
1994-01-25,16.34
1994-01-26,13.28
1994-01-27,11.84
1994-01-28,16.16
1994-01-29,8.24
1994-01-30,13.46
1994-01-31,5.9
1994-02-01,6.62
1994-02-02,
1994-02-03,5.18
1994-02-04,7.52
1994-02-05,6.62
1994-02-06,
1994-02-07,8.06
1994-02-08,2.12
1994-02-09,13.1
1994-02-10,16.88
1994-02-11,5.54
1994-02-12,1.04
1994-02-13,12.74
1994-02-14,
1994-02-15,15.62
1994-02-16,26.06
1994-02-17,
1994-02-18,13.28
1994-02-19,15.44
1994-02-20,21.38
1994-02-21,21.38
1994-02-22,14.36
1994-02-23,
1994-02-24,26.06
1994-02-25,24.26
1994-02-26,30.38
1994-02-27,26.78
1994-02-28,
1994-03-01,
1994-03-02,30.2
1994-03-03,31.82
1994-03-04,29.66
1994-03-05,23.72
1994-03-06,17.6
1994-03-07,22.1
1994-03-08,20.12
1994-03-09,23.36
1994-03-10,24.62
1994-03-11,17.96
1994-03-12,17.78
1994-03-13,23.36
1994-03-14,24.26
1994-03-15,24.62
1994-03-16,25.52
1994-03-17,26.96
1994-03-18,21.74
1994-03-19,10.58
1994-03-20,15.62
1994-03-21,20.66
1994-03-22,8.42
1994-03-23,13.28
1994-03-24,19.94
1994-03-25,
1994-03-26,25.52
1994-03-27,24.08
1994-03-28,25.16
1994-03-29,25.7
1994-03-30,31.64
1994-03-31,29.48
1994-04-01,25.88
1994-04-02,29.3
1994-04-03,25.34
1994-04-04,18.5
1994-04-05,17.42
1994-04-06,26.42
1994-04-07,25.52
1994-04-08,27.86
1994-04-09,24.08
1994-04-10,24.26
1994-04-11,23.18
1994-04-12,26.06
1994-04-13,25.34
1994-04-14,
1994-04-15,25.34
1994-04-16,30.38
1994-04-17,37.22
1994-04-18,32.9
1994-04-19,37.58
1994-04-20,29.84
1994-04-21,30.2
1994-04-22,24.26
1994-04-23,29.3
1994-04-24,28.22
1994-04-25,29.12
1994-04-26,31.46
1994-04-27,28.76
1994-04-28,25.7
1994-04-29,26.42
1994-04-30,25.52
1994-05-01,21.56
1994-05-02,23.36
1994-05-03,27.5
1994-05-04,40.64
1994-05-05,39.38
1994-05-06,41.9
1994-05-07,41.54
1994-05-08,34.88
1994-05-09,40.28
1994-05-10,34.16
1994-05-11,40.82
1994-05-12,29.3
1994-05-13,24.62
1994-05-14,30.92
1994-05-15,32.72
1994-05-16,26.24
1994-05-17,22.46
1994-05-18,25.52
1994-05-19,37.58
1994-05-20,32.54
1994-05-21,31.46
1994-05-22,27.86
1994-05-23,35.78
1994-05-24,41.72
1994-05-25,42.08
1994-05-26,33.08
1994-05-27,27.86
1994-05-28,37.4
1994-05-29,34.88
1994-05-30,28.22
1994-05-31,39.56
1994-06-01,28.76
1994-06-02,34.7
1994-06-03,32.54
1994-06-04,32.54
1994-06-05,35.78
1994-06-06,28.94
1994-06-07,26.24
1994-06-08,23.54
1994-06-09,32.0
1994-06-10,38.12
1994-06-11,44.24
1994-06-12,42.8
1994-06-13,31.1
1994-06-14,27.86
1994-06-15,25.16
1994-06-16,26.24
1994-06-17,35.06
1994-06-18,26.06
1994-06-19,34.16
1994-06-20,42.08
1994-06-21,40.1
1994-06-22,41.72
1994-06-23,37.04
1994-06-24,29.12
1994-06-25,34.34
1994-06-26,40.1
1994-06-27,35.42
1994-06-28,41.36
1994-06-29,42.26
1994-06-30,40.1
1994-07-01,34.88
1994-07-02,37.22
1994-07-03,25.7
1994-07-04,32.36
1994-07-05,36.68
1994-07-06,28.58
1994-07-07,
1994-07-08,49.28
1994-07-09,44.6
1994-07-10,37.58
1994-07-11,42.62
1994-07-12,35.06
1994-07-13,42.98
1994-07-14,46.04
1994-07-15,35.6
1994-07-16,47.3
1994-07-17,49.64
1994-07-18,40.28
1994-07-19,44.42
1994-07-20,52.34
1994-07-21,55.76
1994-07-22,54.14
1994-07-23,45.14
1994-07-24,47.3
1994-07-25,38.84
1994-07-26,39.02
1994-07-27,44.42
1994-07-28,45.5
1994-07-29,46.94
1994-07-30,43.52
1994-07-31,41.0
1994-08-01,42.26
1994-08-02,44.96
1994-08-03,42.08
1994-08-04,42.44
1994-08-05,42.26
1994-08-06,33.8
1994-08-07,38.84
1994-08-08,30.02
1994-08-09,29.12
1994-08-10,39.2
1994-08-11,40.1
1994-08-12,37.58
1994-08-13,40.82
1994-08-14,40.64
1994-08-15,37.76
1994-08-16,35.24
1994-08-17,35.06
1994-08-18,36.68
1994-08-19,37.76
1994-08-20,33.98
1994-08-21,31.46
1994-08-22,29.3
1994-08-23,36.14
1994-08-24,36.68
1994-08-25,35.6
1994-08-26,35.96
1994-08-27,40.46
1994-08-28,37.4
1994-08-29,31.64
1994-08-30,36.68
1994-08-31,44.06
1994-09-01,36.86
1994-09-02,30.2
1994-09-03,38.12
1994-09-04,26.96
1994-09-05,36.14
1994-09-06,35.96
1994-09-07,35.42
1994-09-08,35.6
1994-09-09,29.66
1994-09-10,28.22
1994-09-11,34.34
1994-09-12,33.98
1994-09-13,26.78
1994-09-14,28.22
1994-09-15,32.36
1994-09-16,37.76
1994-09-17,36.5
1994-09-18,39.92